Regional Weather Roundup
Issued by NWS Goodland, KS

Home | Current Version | Previous Version | Text Only | Print | Product List | Glossary Off
Versions: 1 2 3 4 5 6 7 8 9 10 11 12 13 14 15 16 17 18 19 20 21 22 23 24 25 26 27 28 29 30 31 32 33 34 35 36 37 38 39 40 41 42 43 44 45 46 47 48 49 50

125
ASUS43 KGLD 281459
RWRGLD

GOODLAND FORECAST AREA HOURLY WEATHER ROUNDUP
NATIONAL WEATHER SERVICE GOODLAND KS
900 AM MDT SUN AUG 28 2016

...OFFICIAL OBSERVATIONS...

CITY           SKY/WX    TMP DP  RH WIND       PRES   REMARKS
GOODLAND KS    CLOUDY    65  56  72 S8        30.13R
HILL CITY KS   MOSUNNY   72  63  73 SW3       30.11R
IMPERIAL NEB   SUNNY     71  59  65 SW9       30.10S
MCCOOK NEB     PTSUNNY   72  64  76 CALM      30.10R
AKRON CO       SUNNY     74  50  42 SW10      30.14F
BURLINGTON CO  SUNNY     72  54  53 SW13      30.14S
LIMON CO       SUNNY     67  54  63 VRB3      30.19S
$$

...UNOFFICIAL OBSERVATIONS...

CITY           SKY/WX    TMP DP  RH WIND       PRES   REMARKS
COLBY KS       PTSUNNY   68  63  83 S5        30.14S
LENORA KS        N/A     70  32  24 MISG        N/A
NORTON KS      SUNNY     70  61  73 S7        30.10S
SHARON SPRINGS   N/A     67  60  79 S6G14       N/A
TRENTON NEB      N/A     71  32  23 MISG        N/A
KIT CARSON CO    N/A     64  55  72 CALM        N/A
YUMA CO          N/A     72  57  58 SW7         N/A
$$




USA.gov is the U.S. government's official web portal to all federal, state and local government web resources and services.